Current Version              Previous Version:    01  02  03  04  05  06  07  08  09  10  11  12  13  14  15  16  17  18  19  20  21  22  23  24  25  26  27  28  29  30  
   31  32  33  34  35  36  37  38  39  40  41  42  43  44  45  46  47  48  49  50  51  52  53  54  55  56  57  58  59  60  

[Printable]
200
ASUS44 KFWD 260310
RWRTX
NORTH TEXAS HOURLY WEATHER ROUNDUP
NATIONAL WEATHER SERVICE FORT WORTH TX
1000 PM CDT SAT OCT 25 2014

NOTE: "FAIR" INDICATES FEW OR NO CLOUDS BELOW 12,000 FEET WITH NO
SIGNIFICANT WEATHER AND/OR OBSTRUCTIONS TO VISIBILITY.

TXZ118-119-260400-
DALLAS/FORT WORTH METROPLEX

CITY           SKY/WX    TMP DP  RH WIND       PRES   REMARKS
DFW AIRPORT    CLEAR     75  60  59 S8        30.05S
DALLAS LOVE    CLEAR     76  60  57 S8        30.05S
FTW MEACHAM    CLEAR     75  60  59 S7        30.05R
DAL-EXECUTIVE  FAIR      77  60  55 S5        30.06R
FTW-ALLIANCE   CLEAR     72  60  66 S6        30.05R
FTW-NAS-JRB    CLEAR     76  59  55 S8        30.09S
FTW-SPINKS     CLEAR     75  60  59 S7        30.08R
ARLINGTON      CLEAR     75  59  57 S8        30.06R
GRAND PRAIRIE  CLEAR     75  62  62 S3        30.07S
MESQUITE       CLEAR     70  61  73 SE5       30.06
LANCASTER      CLEAR     72  59  63 CALM      30.07S
$$

TXZ091>094-102>105-117-120-121-131>134-260400-
NORTH CENTRAL TEXAS

CITY           SKY/WX    TMP DP  RH WIND       PRES   REMARKS
SHRMAN/DENISON CLEAR     74  64  69 S9        30.05S
GAINESVILLE    CLEAR     70  61  74 S3        30.07S
BOWIE          CLEAR     69  60  72 CALM      30.05S
BRIDGEPORT     CLEAR     77  60  55 S9        30.06S
DECATUR        CLEAR     76  58  53 S9        30.06S
DENTON         CLEAR     71  60  68 S7        30.04S
MCKINNEY       CLEAR     68  61  78 S6        30.06R
GREENVILLE     CLEAR     68  61  77 S6        30.06S
ROCKWALL       CLEAR     73  62  69 S14       30.06R
TERRELL        CLEAR     72  62  71 S5        30.07S
WAXAHACHIE     CLEAR     72  60  67 S5        30.08S
CLEBURNE       CLEAR     73  63  68 S7        30.09R
GRANBURY       CLEAR     75  60  59 SE5       30.07S
$$

TXZ083>090-098>101-113>116-127>130-139>142-154-155-260400-
WESTERN NORTH TEXAS

CITY           SKY/WX    TMP DP  RH WIND       PRES   REMARKS
WICHITA FALLS  CLEAR     70  57  63 S10       30.01S
WF-KICKAPOO    CLEAR     71  56  60 S5        30.03F
VERNON         CLEAR     72  54  53 S7        30.02S
ABILENE        CLEAR     72  51  47 S9        30.08S
ABILENE-DYESS  CLEAR     67  50  53 S5        30.07S
BRECKENRIDGE   CLEAR     74  55  49 S10       30.05S
GRAHAM         CLEAR     75  58  54 SE6       30.03S
MINERAL WELLS  CLEAR     73  58  59 SE9       30.04S
STEPHENVILLE   CLEAR     70  58  65 S3        30.11S
COMANCHE       CLEAR     72  57  60 S8        30.09S
BROWNWOOD      PTCLDY    72  57  60 SE6       30.09S
COLEMAN        CLEAR     73  56  54 S7        30.09S
BRADY          CLEAR     72  54  53 SE5       30.11S
$$

TXZ143>147-156>162-174-175-260400-
CENTRAL TEXAS

CITY           SKY/WX    TMP DP  RH WIND       PRES   REMARKS
WACO           CLEAR     73  62  68 S7        30.08R
WACO-TSTC      CLEAR     72  61  68 SE3       30.08R
WACO-MCGREGOR  CLEAR     72  55  56 S7        30.09S
HILLSBORO      CLEAR     75  58  55 SE8       30.08S
CORSICANA      CLEAR     70  62  76 S7        30.09R
MEXIA          CLEAR     69  63  80 S3        30.08S
HEARNE           N/A     67  62  83 CALM      30.10S HAZE
CAMERON        CLEAR     71  61  71 S6        30.09S
TEMPLE         CLEAR     72  57  60 S10       30.08S
KILLEEN        CLEAR     70  58  65 S7        30.10S
KILLEEN-SKYLRK CLEAR     73  55  53 S6        30.09R
FORT HOOD      CLEAR     74  59  59 SE5       30.10R
GATESVILLE     CLEAR     72  57  60 S5        30.11S
HAMILTON       CLEAR     67  57  68 S8        30.11S
LAMPASAS       CLEAR     71  59  67 CALM      30.09S
$$

TXZ095>097-106>112-122>126-135>138-148>153-164>167-260400-
EAST TEXAS

CITY           SKY/WX    TMP DP  RH WIND       PRES   REMARKS
PARIS          CLEAR     70  57  64 S5        30.06S
SULPHUR SPRNGS CLEAR     74  62  66 S7        30.08S
MOUNT PLEASANT CLEAR     68  65  90 CALM      30.08S
MINEOLA        CLEAR     73  64  73 S5        30.08S
TYLER          CLEAR     67  63  87 S7        30.08S
LONGVIEW       CLEAR     68  63  84 S6        30.07S
MARSHALL       CLEAR     68  66  91 CALM      30.10R
ATHENS         CLEAR     64  63  94 CALM      30.07S
PALESTINE      CLEAR     70  64  81 SE3       30.10S
JACKSONVILLE   CLEAR     73  64  74 S7        30.12R
HENDERSON      CLEAR     65  64  98 CALM      30.10S
NACOGDOCHES    CLEAR     63  61  94 CALM      30.10S
LUFKIN         CLEAR     67  63  87 CALM      30.10S
$$

SUPPLEMENTAL OBSERVATIONS (CENTRAL)

CITY           SKY/WX    TMP DP  RH WIND       PRES   REMARKS
CADDO GRASSLND   N/A     66  61  82 S2          N/A
PALESTINE        N/A     64  63  94 CALM        N/A
MCGREGOR         N/A     72  57  60 S5          N/A
TEMPLE           N/A     72  59  64 S6          N/A
$$

SUPPLEMENTAL OBSERVATIONS (WEST)

CITY           SKY/WX    TMP DP  RH WIND       PRES   REMARKS
MILLERS CREEK    N/A     73  46  38 S8          N/A
POSSUM KINGDOM   N/A     73  54  49 S5          N/A
LBJ GRASSLAND    N/A     75  57  53 SE8         N/A
GRANBURY         N/A     73  57  56 S6          N/A
HAMBY            N/A     75  50  41 S8          N/A
IVIE RESERVOIR   N/A     72  50  46 SE6         N/A
COLORADO BEND    N/A     72  55  56 S6          N/A
$$

SUPPLEMENTAL OBSERVATIONS (EAST)

CITY           SKY/WX    TMP DP  RH WIND       PRES   REMARKS
TEXARKANA        N/A     61  57  88 CALM        N/A
LINDEN           N/A     66  63  88 CALM        N/A
LUFKIN           N/A     64  61  88 MISG        N/A
$$

SUPPLEMENTAL OBSERVATIONS ARE A COLLECTION OF AUTOMATED INSTRUMENTS
THAT ARE MAINTAINED BY A VARIETY OF FEDERAL AND STATE AGENCIES.
CERTAIN ELEMENTS...SUCH AS HUMIDITY VALUES AND SUSTAINED WIND
SPEEDS...MAY BE APPROXIMATED.